This is the latest recevied weather packets stored in our database for station/object SP1BMW-13. If no packets are shown the sender has not sent any weather packets the latest 10 day(s).
| Time | Temp. | Humidity | Pressure | Rain* | Wind** | Luminosity | Snow |
|---|---|---|---|---|---|---|---|
| 1787901558 | 19.44° C | 59% | 1012.1 hPa | 0 mm | 1.34 m/s, 108° | 155 W/m² | - |
| 1787901499 | 19.44° C | 58% | 1011.9 hPa | 0 mm | 1.34 m/s, 166° | 157 W/m² | - |
| 1787901438 | 19.44° C | 58% | 1012 hPa | 0 mm | 2.24 m/s, 42° | 158 W/m² | - |
| 1787901379 | 19.44° C | 58% | 1012 hPa | 0 mm | 1.79 m/s, 218° | 159 W/m² | - |
| 1787901318 | 19.44° C | 58% | 1012 hPa | 0 mm | 0.89 m/s, 115° | 160 W/m² | - |
| 1787901258 | 19.44° C | 58% | 1011.9 hPa | 0 mm | 0.89 m/s, 334° | 166 W/m² | - |
| 1787901198 | 19.44° C | 59% | 1011.9 hPa | 0 mm | 0.45 m/s, 88° | 163 W/m² | - |
| 1787901138 | 19.44° C | 58% | 1012 hPa | 0 mm | 0.89 m/s, 122° | 161 W/m² | - |
| 1787901078 | 19.44° C | 59% | 1011.9 hPa | 0 mm | 1.34 m/s, 42° | 161 W/m² | - |
| 1787901018 | 19.44° C | 59% | 1012.1 hPa | 0 mm | 0.45 m/s, 126° | 159 W/m² | - |
| 1787900958 | 19.44° C | 58% | 1011.7 hPa | 0 mm | 0.89 m/s, 128° | 153 W/m² | - |
| 1787900899 | 19.44° C | 59% | 1012.2 hPa | 0 mm | 0.89 m/s, 120° | 154 W/m² | - |
| 1787900838 | 19.44° C | 59% | 1012 hPa | 0 mm | 1.34 m/s, 53° | 149 W/m² | - |
| 1787900778 | 19.44° C | 59% | 1012 hPa | 0 mm | 0.89 m/s, 116° | 145 W/m² | - |
| 1787900718 | 19.44° C | 59% | 1012.1 hPa | 0 mm | 1.34 m/s, 36° | 142 W/m² | - |
| 1787900658 | 19.44° C | 59% | 1012 hPa | 0 mm | 1.34 m/s, 121° | 139 W/m² | - |
| 1787900598 | 19.44° C | 59% | 1012 hPa | 0 mm | 0.89 m/s, 325° | 133 W/m² | - |
| 1787900538 | 19.44° C | 58% | 1012.1 hPa | 0 mm | 0.45 m/s, 346° | 129 W/m² | - |
| 1787900478 | 19.44° C | 59% | 1012.1 hPa | 0 mm | 0.89 m/s, 51° | 125 W/m² | - |
| 1787900419 | 19.44° C | 58% | 1012.1 hPa | 0 mm | 0.45 m/s, 61° | 122 W/m² | - |
| 1787900358 | 19.44° C | 58% | 1012 hPa | 0 mm | 2.24 m/s, 72° | 118 W/m² | - |
| 1787900298 | 19.44° C | 60% | 1012 hPa | 0 mm | 0 m/s | 113 W/m² | - |
| 1787900238 | 19.44° C | 59% | 1012.1 hPa | 0 mm | 0.89 m/s, 123° | 108 W/m² | - |
| 1787900178 | 19.44° C | 58% | 1011.9 hPa | 0 mm | 1.79 m/s, 113° | 106 W/m² | - |
| 1787900118 | 19.44° C | 58% | 1012 hPa | 0 mm | 0.89 m/s, 175° | 102 W/m² | - |
* Rain latest hour (hover to see other rain measurements)
** Current wind speed in m/s (hover to see current wind gust speed)